Regional Weather Roundup
Issued by NWS

Home | Current Version | Previous Version | Graphics & Text | Print | Product List | Glossary On
Versions: 1 2 3 4 5 6 7 8 9 10 11 12 13 14 15 16 17 18 19 20 21 22 23 24 25 26 27 28 29 30 31 32 33 34 35 36 37 38 39 40 41 42 43 44 45 46 47 48 49 50
000
ASUS43 KFSD 311202
RWRSD

WEATHER ROUNDUP FOR SOUTH DAKOTA
NATIONAL WEATHER SERVICE SIOUX FALLS SD
700 AM CDT MON AUG 31 2015

NOTE: "FAIR" INDICATES FEW OR NO CLOUDS BELOW 12,000 FEET WITH NO
SIGNIFICANT WEATHER AND/OR OBSTRUCTIONS TO VISIBILITY.


SDZ001>005-009-010-012>017-311300-
NORTHWEST AND NORTH CENTRAL SOUTH DAKOTA

CITY           SKY/WX    TMP DP  RH WIND       PRES   REMARKS
FAITH            N/A     63  53  70 NW13      29.78R
MOBRIDGE       MOCLDY    65  60  84 NW5       29.67R
$$

SDZ012>016-024>037-041>051-057-063-072>074-311300-
SOUTHWEST AND SOUTH CENTRAL SOUTH DAKOTA

CITY           SKY/WX    TMP DP  RH WIND       PRES   REMARKS
RAPID CTY ARPT CLOUDY    71  50  47 W3        29.85R
PIERRE         MOCLDY    70  51  51 SE7       29.68R
CUSTER         CLOUDY    65  44  46 W6        30.02R
ELLSWORTH AFB  CLOUDY    74  51  44 N18G25    29.86
PHILIP         CLOUDY    73  54  51 SW12      29.74R
PINE RIDGE     CLOUDY    70  49  47 SW3       29.87R
WINNER         FAIR      72  53  51 S22       29.77R
$$

SDZ004>011-016>023-039-040-311300-
NORTHEAST SOUTH DAKOTA

CITY           SKY/WX    TMP DP  RH WIND       PRES   REMARKS
ABERDEEN       CLEAR     67  62  84 S16       29.69S
WATERTOWN      CLEAR     64  61  90 S14       29.80F
BROOKINGS      CLEAR     64  61  88 S12       29.89R
$$

SDZ017-020-022-023-036>040-048>070-311300-
SOUTHEAST SOUTH DAKOTA

CITY           SKY/WX    TMP DP  RH WIND       PRES   REMARKS
SIOUX FALLS    PTCLDY    65  63  93 S12       29.89S
HURON          CLEAR     66  63  90 S13G23    29.76S
CHAMBERLAIN    CLEAR     69  59  71 S12G20    29.77R
MITCHELL       CLEAR     65  64  97 S9        29.81F
YANKTON        CLEAR     64  63  94 SE9       29.87S
$$

ABBREVIATIONS USED IN REMARKS
   TC - TEMPERATURE IN CELSIUS
  WCI - WIND CHILL INDEX
   HX - HEAT INDEX
  VSB - VISIBILITY



USA.gov is the U.S. government's official web portal to all federal, state and local government web resources and services.